AMX451 MMMX-MUHA

Flight info

Callsign AMX451
Flight time N/A
Altitude 39000
Route NOXOS3A NOXOS UT106 AXOMU UR522 NAKRO VETSI2A
Aircraft B38M/M-SDE1FGHILORVWXY/HB1

Departure

Time 2026-05-06 02:37
Airport Mexico City Benito Juárez International Airport (MMMX)

Arrival

Time N/A
Airport José Martí International Airport (MUHA)
Time Latitude Longitude Altitude Speed Heading
2026-05-06 02:05 19.42369 -99.07877 7305 ft 0 kts 58°
2026-05-06 02:25 19.42357 -99.07897 7305 ft 4 kts 53°
2026-05-06 02:25 19.42339 -99.07918 7305 ft 4 kts 38°
2026-05-06 02:25 19.42317 -99.07928 7305 ft 4 kts 352°
2026-05-06 02:26 19.42308 -99.07924 7305 ft 1 kts 312°
2026-05-06 02:30 19.42311 -99.07927 7305 ft 2 kts 312°
2026-05-06 02:30 19.42332 -99.07953 7305 ft 8 kts 311°
2026-05-06 02:30 19.42369 -99.08001 7305 ft 9 kts 302°
2026-05-06 02:31 19.42390 -99.08061 7305 ft 9 kts 287°
2026-05-06 02:31 19.42408 -99.08122 7305 ft 9 kts 282°
2026-05-06 02:31 19.42404 -99.08191 7305 ft 10 kts 252°
2026-05-06 02:31 19.42389 -99.08256 7305 ft 9 kts 287°
2026-05-06 02:32 19.42413 -99.08321 7305 ft 11 kts 292°
2026-05-06 02:32 19.42444 -99.08398 7305 ft 12 kts 293°
2026-05-06 02:32 19.42476 -99.08479 7305 ft 12 kts 292°
2026-05-06 02:32 19.42501 -99.08562 7305 ft 12 kts 285°
2026-05-06 02:33 19.42523 -99.08638 7305 ft 10 kts 291°
2026-05-06 02:33 19.42534 -99.08665 7305 ft 0 kts 294°
2026-05-06 02:33 19.42536 -99.08670 7305 ft 1 kts 293°
2026-05-06 02:34 19.42538 -99.08675 7305 ft 1 kts 293°
2026-05-06 02:34 19.42553 -99.08712 7305 ft 10 kts 293°
2026-05-06 02:34 19.42593 -99.08813 7305 ft 19 kts 293°
2026-05-06 02:34 19.42649 -99.08955 7305 ft 21 kts 292°
2026-05-06 02:35 19.42692 -99.09031 7305 ft 9 kts 311°
2026-05-06 02:35 19.42748 -99.09056 7305 ft 10 kts 25°
2026-05-06 02:35 19.42788 -99.08999 7305 ft 10 kts 58°
2026-05-06 02:35 19.42798 -99.08983 7305 ft 0 kts 59°
2026-05-06 02:36 19.42827 -99.08929 7305 ft 31 kts 60°
2026-05-06 02:36 19.43054 -99.08523 7304 ft 96 kts 59°
2026-05-06 02:36 19.43487 -99.07754 7307 ft 149 kts 58°
2026-05-06 02:37 19.44078 -99.06682 7487 ft 177 kts 60°
2026-05-06 02:37 19.44755 -99.05501 7907 ft 205 kts 58°
2026-05-06 02:37 19.45572 -99.04130 8414 ft 229 kts 59°
2026-05-06 02:37 19.46367 -99.02697 9198 ft 225 kts 60°
2026-05-06 02:38 19.47193 -99.01194 9445 ft 246 kts 60°
2026-05-06 02:38 19.48107 -98.99545 9725 ft 272 kts 60°
2026-05-06 02:38 19.49105 -98.97754 10165 ft 291 kts 60°
2026-05-06 02:38 19.50158 -98.95874 10746 ft 300 kts 60°
2026-05-06 02:39 19.51225 -98.93970 11528 ft 301 kts 60°
2026-05-06 02:39 19.52301 -98.92051 12275 ft 305 kts 60°
2026-05-06 02:39 19.53316 -98.90068 12997 ft 308 kts 70°
2026-05-06 02:39 19.53907 -98.87888 13768 ft 309 kts 75°
2026-05-06 02:40 19.54487 -98.85670 14413 ft 313 kts 75°
2026-05-06 02:40 19.55073 -98.83439 15103 ft 315 kts 75°
2026-05-06 02:40 19.55664 -98.81193 15787 ft 318 kts 75°
2026-05-06 02:40 19.56261 -98.78924 16430 ft 321 kts 75°
2026-05-06 02:41 19.56863 -98.76636 17080 ft 323 kts 75°
2026-05-06 02:41 19.57469 -98.74329 17703 ft 327 kts 75°
2026-05-06 02:41 19.57973 -98.71948 18077 ft 339 kts 81°
2026-05-06 02:41 19.58248 -98.70289 18173 ft 351 kts 80°
2026-05-06 02:42 19.58842 -98.66839 18507 ft 366 kts 80°
2026-05-06 02:42 19.59309 -98.64181 19067 ft 367 kts 80°
2026-05-06 02:42 19.59784 -98.61505 19538 ft 371 kts 80°
2026-05-06 02:42 19.60264 -98.58809 20027 ft 374 kts 80°
2026-05-06 02:43 19.60747 -98.56094 20515 ft 376 kts 80°
2026-05-06 02:43 19.61235 -98.53357 21010 ft 379 kts 80°
2026-05-06 02:43 19.61521 -98.51525 21305 ft 381 kts 86°
2026-05-06 02:43 19.61483 -98.47768 21921 ft 384 kts 92°
2026-05-06 02:44 19.61445 -98.45887 22205 ft 386 kts 92°
2026-05-06 02:44 19.61357 -98.42061 22832 ft 389 kts 92°
2026-05-06 02:44 19.61309 -98.40160 23135 ft 391 kts 92°
2026-05-06 02:44 19.61232 -98.37267 23571 ft 394 kts 92°
2026-05-06 02:45 19.61155 -98.34349 23942 ft 397 kts 92°
2026-05-06 02:45 19.61077 -98.31414 24306 ft 399 kts 92°
2026-05-06 02:45 19.60998 -98.28463 24669 ft 402 kts 93°
2026-05-06 02:45 19.60918 -98.25485 25024 ft 405 kts 93°
2026-05-06 02:46 19.60836 -98.22493 25391 ft 407 kts 93°
2026-05-06 02:46 19.60754 -98.19481 25745 ft 410 kts 93°
2026-05-06 02:46 19.60670 -98.16448 26089 ft 413 kts 93°
2026-05-06 02:46 19.60586 -98.13399 26434 ft 415 kts 93°
2026-05-06 02:47 19.60500 -98.10328 26788 ft 418 kts 93°
2026-05-06 02:47 19.60414 -98.07236 27131 ft 421 kts 93°
2026-05-06 02:47 19.60326 -98.04125 27455 ft 423 kts 93°
2026-05-06 02:47 19.60474 -98.01002 27772 ft 428 kts 79°
2026-05-06 02:48 19.61373 -97.97985 28143 ft 431 kts 71°
2026-05-06 02:48 19.62416 -97.94990 28403 ft 435 kts 71°
2026-05-06 02:48 19.63483 -97.91977 28739 ft 437 kts 70°
2026-05-06 02:48 19.64570 -97.88956 29059 ft 440 kts 70°
2026-05-06 02:49 19.65674 -97.85920 29363 ft 443 kts 70°
2026-05-06 02:49 19.66787 -97.82863 29671 ft 445 kts 70°
2026-05-06 02:49 19.67908 -97.79789 29963 ft 448 kts 70°
2026-05-06 02:49 19.69034 -97.76698 30238 ft 450 kts 70°
2026-05-06 02:50 19.70165 -97.73594 30487 ft 453 kts 70°
2026-05-06 02:50 19.71301 -97.70471 30736 ft 455 kts 70°
2026-05-06 02:50 19.72444 -97.67330 30970 ft 457 kts 70°
2026-05-06 02:50 19.73591 -97.64174 31232 ft 459 kts 70°
2026-05-06 02:51 19.74744 -97.61002 31470 ft 462 kts 70°
2026-05-06 02:51 19.75901 -97.57814 31697 ft 464 kts 70°
2026-05-06 02:51 19.77064 -97.54608 31935 ft 466 kts 70°
2026-05-06 02:51 19.78215 -97.51431 32170 ft 468 kts 70°
2026-05-06 02:52 19.79386 -97.48200 32400 ft 470 kts 70°
2026-05-06 02:52 19.80564 -97.44948 32622 ft 472 kts 70°
2026-05-06 02:52 19.81745 -97.41684 32848 ft 474 kts 70°
2026-05-06 02:52 19.82930 -97.38409 33076 ft 477 kts 70°
2026-05-06 02:53 19.84119 -97.35120 33340 ft 478 kts 70°
2026-05-06 02:53 19.85310 -97.31826 33654 ft 477 kts 70°
2026-05-06 02:53 19.86497 -97.28537 33964 ft 477 kts 70°
2026-05-06 02:53 19.87682 -97.25254 34241 ft 476 kts 70°
2026-05-06 02:54 19.88867 -97.21968 34502 ft 475 kts 70°
2026-05-06 02:54 19.90047 -97.18691 34774 ft 475 kts 70°
2026-05-06 02:54 19.91228 -97.15413 34875 ft 476 kts 70°
2026-05-06 02:55 19.93579 -97.08880 34847 ft 471 kts 70°
2026-05-06 02:55 19.95919 -97.02370 34844 ft 472 kts 70°
2026-05-06 02:56 19.98241 -96.95899 34832 ft 472 kts 70°
2026-05-06 02:56 20.00577 -96.89382 34818 ft 471 kts 70°
2026-05-06 02:57 20.02908 -96.82869 34813 ft 471 kts 70°
2026-05-06 02:57 20.05237 -96.76355 34806 ft 471 kts 70°
2026-05-06 02:58 20.07565 -96.69834 34799 ft 471 kts 70°
2026-05-06 02:58 20.09890 -96.63313 34795 ft 472 kts 70°
2026-05-06 02:59 20.12214 -96.56785 34797 ft 472 kts 71°
2026-05-06 02:59 20.14541 -96.50240 34792 ft 473 kts 71°
2026-05-06 03:00 20.16870 -96.43682 34796 ft 474 kts 71°
2026-05-06 03:00 20.19203 -96.37105 34797 ft 476 kts 71°
2026-05-06 03:01 20.21523 -96.30554 34804 ft 476 kts 71°
2026-05-06 03:01 20.23856 -96.23957 34800 ft 476 kts 71°
2026-05-06 03:02 20.26186 -96.17360 34806 ft 476 kts 71°
2026-05-06 03:02 20.28512 -96.10767 34809 ft 476 kts 71°
2026-05-06 03:03 20.30837 -96.04169 34813 ft 475 kts 71°
2026-05-06 03:03 20.32269 -96.01002 34799 ft 476 kts 57°
2026-05-06 03:03 20.34276 -95.98197 34822 ft 477 kts 53°
2026-05-06 03:04 20.38360 -95.92615 34815 ft 478 kts 52°
2026-05-06 03:04 20.42491 -95.87064 34816 ft 478 kts 52°
2026-05-06 03:05 20.46627 -95.81517 34818 ft 478 kts 52°
2026-05-06 03:05 20.50758 -95.75970 34819 ft 477 kts 52°
2026-05-06 03:06 20.54885 -95.70425 34826 ft 477 kts 52°
2026-05-06 03:06 20.58986 -95.64909 34827 ft 478 kts 52°
2026-05-06 03:07 20.63110 -95.59356 34824 ft 477 kts 52°
2026-05-06 03:07 20.67234 -95.53798 34825 ft 477 kts 52°
2026-05-06 03:08 20.71354 -95.48241 34829 ft 477 kts 52°
2026-05-06 03:08 20.75472 -95.42679 34831 ft 477 kts 52°
2026-05-06 03:09 20.79587 -95.37117 34832 ft 477 kts 52°
2026-05-06 03:09 20.83699 -95.31553 34833 ft 477 kts 52°
2026-05-06 03:10 20.87809 -95.25988 34833 ft 477 kts 52°
2026-05-06 03:10 20.91888 -95.20459 34840 ft 477 kts 52°
2026-05-06 03:11 20.95993 -95.14887 34839 ft 477 kts 52°
2026-05-06 03:11 21.00094 -95.09317 34840 ft 477 kts 52°
2026-05-06 03:12 21.04198 -95.03740 34842 ft 477 kts 52°
2026-05-06 03:12 21.06071 -95.00823 34827 ft 474 kts 65°
2026-05-06 03:12 21.07206 -94.97538 34842 ft 470 kts 78°
2026-05-06 03:13 21.08608 -94.90677 34840 ft 472 kts 79°
2026-05-06 03:13 21.09907 -94.83781 34846 ft 472 kts 80°
2026-05-06 03:14 21.11167 -94.76882 34843 ft 472 kts 81°
2026-05-06 03:14 21.12421 -94.69982 34841 ft 472 kts 80°
2026-05-06 03:15 21.13673 -94.63081 34848 ft 472 kts 80°
2026-05-06 03:15 21.14922 -94.56174 34847 ft 472 kts 80°
2026-05-06 03:16 21.16160 -94.49313 34850 ft 472 kts 80°
2026-05-06 03:16 21.17403 -94.42406 34849 ft 472 kts 80°
2026-05-06 03:17 21.18643 -94.35498 34851 ft 472 kts 80°
2026-05-06 03:17 21.19882 -94.28585 34857 ft 472 kts 80°
2026-05-06 03:18 21.21117 -94.21674 34853 ft 473 kts 80°
2026-05-06 03:18 21.22351 -94.14751 34855 ft 472 kts 80°
2026-05-06 03:19 21.23580 -94.07836 34858 ft 473 kts 80°
2026-05-06 03:19 21.24808 -94.00915 34863 ft 472 kts 80°
2026-05-06 03:20 21.26643 -93.90538 34866 ft 472 kts 80°
2026-05-06 03:20 21.27863 -93.83619 34869 ft 472 kts 80°
2026-05-06 03:21 21.29079 -93.76702 34869 ft 472 kts 80°
2026-05-06 03:21 21.30293 -93.69780 34873 ft 472 kts 80°
2026-05-06 03:22 21.31503 -93.62862 34873 ft 472 kts 80°
2026-05-06 03:22 21.32711 -93.55942 34874 ft 472 kts 80°
2026-05-06 03:23 21.33915 -93.49026 34875 ft 472 kts 79°
2026-05-06 03:23 21.35117 -93.42106 34879 ft 472 kts 79°
2026-05-06 03:24 21.36315 -93.35186 34881 ft 472 kts 79°
2026-05-06 03:24 21.37511 -93.28268 34887 ft 471 kts 79°
2026-05-06 03:25 21.38696 -93.21400 34886 ft 471 kts 79°
2026-05-06 03:25 21.39883 -93.14485 34884 ft 471 kts 79°
2026-05-06 03:26 21.41061 -93.07572 34887 ft 471 kts 79°
2026-05-06 03:26 21.42238 -93.00653 34885 ft 471 kts 79°
2026-05-06 03:27 21.43412 -92.93741 34892 ft 471 kts 79°
2026-05-06 03:27 21.44582 -92.86826 34893 ft 471 kts 79°
2026-05-06 03:28 21.45751 -92.79910 34893 ft 471 kts 79°
2026-05-06 03:28 21.46920 -92.72989 34897 ft 471 kts 79°
2026-05-06 03:29 21.48078 -92.66111 34901 ft 472 kts 79°
2026-05-06 03:29 21.49242 -92.59179 34901 ft 472 kts 79°
2026-05-06 03:30 21.50403 -92.52247 34902 ft 472 kts 79°
2026-05-06 03:30 21.51561 -92.45312 34905 ft 472 kts 80°
2026-05-06 03:31 21.52717 -92.38378 34908 ft 472 kts 79°
2026-05-06 03:31 21.53869 -92.31440 34908 ft 472 kts 80°
2026-05-06 03:32 21.55021 -92.24493 34912 ft 472 kts 79°
2026-05-06 03:32 21.56169 -92.17543 34917 ft 473 kts 80°
2026-05-06 03:33 21.57316 -92.10591 34916 ft 473 kts 80°
2026-05-06 03:33 21.58459 -92.03633 34920 ft 473 kts 79°
2026-05-06 03:34 21.59603 -91.96675 34914 ft 473 kts 79°
2026-05-06 03:34 21.60748 -91.89721 34921 ft 473 kts 79°
2026-05-06 03:35 21.61883 -91.82814 34921 ft 473 kts 80°
2026-05-06 03:35 21.63024 -91.75857 34925 ft 473 kts 80°
2026-05-06 03:36 21.64160 -91.68901 34926 ft 473 kts 80°
2026-05-06 03:36 21.65295 -91.61942 34929 ft 473 kts 80°
2026-05-06 03:37 21.66426 -91.54984 34928 ft 473 kts 80°
2026-05-06 03:37 21.67364 -91.49199 34929 ft 472 kts 80°
2026-05-06 03:38 21.68490 -91.42240 34933 ft 473 kts 80°
2026-05-06 03:38 21.69614 -91.35275 34930 ft 473 kts 80°
2026-05-06 03:39 21.70728 -91.28307 34932 ft 473 kts 80°
2026-05-06 03:39 21.71834 -91.21339 34930 ft 473 kts 80°
2026-05-06 03:40 21.72938 -91.14363 34935 ft 473 kts 80°
2026-05-06 03:40 21.74038 -91.07389 34936 ft 473 kts 80°
2026-05-06 03:41 21.75136 -91.00414 34928 ft 473 kts 80°
2026-05-06 03:41 21.76223 -90.93487 34940 ft 473 kts 80°
2026-05-06 03:42 21.77316 -90.86509 34934 ft 473 kts 80°
2026-05-06 03:42 21.78406 -90.79528 34934 ft 473 kts 80°
2026-05-06 03:43 21.79495 -90.72541 34939 ft 473 kts 80°
2026-05-06 03:43 21.80582 -90.65551 34938 ft 474 kts 80°
2026-05-06 03:44 21.81663 -90.58567 34937 ft 473 kts 80°
2026-05-06 03:44 21.82743 -90.51575 34937 ft 473 kts 80°
2026-05-06 03:45 21.83818 -90.44592 34935 ft 473 kts 80°
2026-05-06 03:45 21.84892 -90.37598 34945 ft 473 kts 80°
2026-05-06 03:46 21.85970 -90.30605 34941 ft 474 kts 80°
2026-05-06 03:46 21.87038 -90.23657 34943 ft 473 kts 80°
2026-05-06 03:47 21.88109 -90.16669 34942 ft 474 kts 80°
2026-05-06 03:47 21.89179 -90.09666 34942 ft 474 kts 79°
2026-05-06 03:48 21.90245 -90.02668 34939 ft 474 kts 79°
2026-05-06 03:48 21.91308 -89.95668 34945 ft 473 kts 80°
2026-05-06 03:49 21.92368 -89.88670 34946 ft 474 kts 79°
2026-05-06 03:49 21.93426 -89.81666 34947 ft 474 kts 79°
2026-05-06 03:50 21.94473 -89.74712 34948 ft 473 kts 79°
2026-05-06 03:50 21.95521 -89.67713 34951 ft 473 kts 79°
2026-05-06 03:51 21.96565 -89.60720 34951 ft 473 kts 79°
2026-05-06 03:51 21.97606 -89.53720 34951 ft 473 kts 79°
2026-05-06 03:52 21.98643 -89.46730 34957 ft 473 kts 79°
2026-05-06 03:52 21.99675 -89.39736 34958 ft 472 kts 79°
2026-05-06 03:53 22.00702 -89.32753 34957 ft 472 kts 79°
2026-05-06 03:53 22.01726 -89.25773 34961 ft 471 kts 79°
2026-05-06 03:54 22.02738 -89.18849 34957 ft 470 kts 79°
2026-05-06 03:54 22.03754 -89.11883 34964 ft 470 kts 79°
2026-05-06 03:55 22.04769 -89.04921 34966 ft 470 kts 79°
2026-05-06 03:55 22.05782 -88.97962 34970 ft 470 kts 79°
2026-05-06 03:56 22.06790 -88.91008 34973 ft 469 kts 79°
2026-05-06 03:56 22.07796 -88.84053 34973 ft 469 kts 79°
2026-05-06 03:57 22.08791 -88.77149 34978 ft 469 kts 79°
2026-05-06 03:57 22.09789 -88.70205 34978 ft 469 kts 79°
2026-05-06 03:58 22.10784 -88.63258 34977 ft 469 kts 79°
2026-05-06 03:58 22.11776 -88.56311 34983 ft 468 kts 79°
2026-05-06 03:59 22.12765 -88.49369 34985 ft 468 kts 79°
2026-05-06 03:59 22.13750 -88.42426 34984 ft 468 kts 79°
2026-05-06 04:00 22.14732 -88.35485 34991 ft 468 kts 79°
2026-05-06 04:00 22.15711 -88.28548 34991 ft 468 kts 79°
2026-05-06 04:01 22.16686 -88.21612 34987 ft 468 kts 79°
2026-05-06 04:01 22.17654 -88.14714 34995 ft 468 kts 79°
2026-05-06 04:02 22.18619 -88.07769 34993 ft 468 kts 79°
2026-05-06 04:02 22.19582 -88.00818 35001 ft 468 kts 79°
2026-05-06 04:03 22.20541 -87.93871 35015 ft 469 kts 79°
2026-05-06 04:03 22.21498 -87.86913 35003 ft 469 kts 79°
2026-05-06 04:04 22.22453 -87.79952 35007 ft 469 kts 79°
2026-05-06 04:04 22.23406 -87.72983 35005 ft 469 kts 79°
2026-05-06 04:05 22.24357 -87.66015 35010 ft 469 kts 79°
2026-05-06 04:05 22.25313 -87.59038 35009 ft 470 kts 79°
2026-05-06 04:06 22.26259 -87.52111 35012 ft 470 kts 79°
2026-05-06 04:06 22.27210 -87.45126 35010 ft 470 kts 79°
2026-05-06 04:07 22.28158 -87.38144 35015 ft 470 kts 79°
2026-05-06 04:07 22.29100 -87.31149 35013 ft 470 kts 79°
2026-05-06 04:08 22.30037 -87.24159 35018 ft 471 kts 79°
2026-05-06 04:08 22.30971 -87.17168 35017 ft 470 kts 79°
2026-05-06 04:09 22.31903 -87.10174 35020 ft 470 kts 79°
2026-05-06 04:09 22.32830 -87.03182 35017 ft 471 kts 79°
2026-05-06 04:10 22.33756 -86.96182 35021 ft 471 kts 79°
2026-05-06 04:10 22.34678 -86.89183 35023 ft 471 kts 79°
2026-05-06 04:11 22.35598 -86.82183 35026 ft 471 kts 79°
2026-05-06 04:11 22.36509 -86.75224 35023 ft 471 kts 79°
2026-05-06 04:12 22.37422 -86.68224 35030 ft 471 kts 79°
2026-05-06 04:12 22.38333 -86.61222 35027 ft 471 kts 79°
2026-05-06 04:13 22.39252 -86.54217 35028 ft 471 kts 78°
2026-05-06 04:13 22.40213 -86.47219 35028 ft 471 kts 78°
2026-05-06 04:14 22.41166 -86.40218 35034 ft 471 kts 78°
2026-05-06 04:14 22.42118 -86.33210 35034 ft 471 kts 78°
2026-05-06 04:15 22.43066 -86.26199 35033 ft 472 kts 78°
2026-05-06 04:15 22.44013 -86.19180 35032 ft 472 kts 78°
2026-05-06 04:16 22.44950 -86.12210 35038 ft 472 kts 78°
2026-05-06 04:16 22.45890 -86.05189 35035 ft 472 kts 78°
2026-05-06 04:17 22.46887 -85.98176 35040 ft 472 kts 77°
2026-05-06 04:17 22.47961 -85.91179 35038 ft 472 kts 77°
2026-05-06 04:18 22.49024 -85.84177 35041 ft 472 kts 77°
2026-05-06 04:18 22.50084 -85.77171 35039 ft 472 kts 77°
2026-05-06 04:19 22.51141 -85.70163 35041 ft 472 kts 77°
2026-05-06 04:19 22.52196 -85.63152 35041 ft 472 kts 77°
2026-05-06 04:20 22.53250 -85.56138 35044 ft 472 kts 77°
2026-05-06 04:20 22.54306 -85.49120 35040 ft 473 kts 77°
2026-05-06 04:21 22.55358 -85.42107 35044 ft 473 kts 77°
2026-05-06 04:21 22.56408 -85.35082 35045 ft 473 kts 77°
2026-05-06 04:22 22.57456 -85.28058 35048 ft 473 kts 77°
2026-05-06 04:23 22.59014 -85.17563 35047 ft 473 kts 77°
2026-05-06 04:23 22.60055 -85.10529 35045 ft 473 kts 77°
2026-05-06 04:24 22.61089 -85.03495 35045 ft 473 kts 77°
2026-05-06 04:24 22.62119 -84.96457 35047 ft 474 kts 77°
2026-05-06 04:25 22.63147 -84.89412 35044 ft 474 kts 77°
2026-05-06 04:25 22.64153 -84.82490 35049 ft 458 kts 77°
2026-05-06 04:26 22.65136 -84.75713 35047 ft 454 kts 77°
2026-05-06 04:26 22.66112 -84.68959 35051 ft 454 kts 76°
2026-05-06 04:27 22.67080 -84.62241 35052 ft 455 kts 77°
2026-05-06 04:27 22.68052 -84.55475 35052 ft 455 kts 76°
2026-05-06 04:28 22.69023 -84.48701 35053 ft 455 kts 76°
2026-05-06 04:28 22.69990 -84.41929 35051 ft 456 kts 76°
2026-05-06 04:29 22.70956 -84.35142 35051 ft 456 kts 77°
2026-05-06 04:29 22.71920 -84.28356 35052 ft 456 kts 76°
2026-05-06 04:30 22.72882 -84.21564 35051 ft 456 kts 76°
2026-05-06 04:30 22.73843 -84.14767 35052 ft 457 kts 76°
2026-05-06 04:31 22.74859 -84.07977 35056 ft 457 kts 76°
2026-05-06 04:31 22.75865 -84.01226 35055 ft 457 kts 76°
2026-05-06 04:32 22.76874 -83.94429 35055 ft 457 kts 76°
2026-05-06 04:32 22.77881 -83.87630 35058 ft 457 kts 76°
2026-05-06 04:33 22.78887 -83.80818 35054 ft 458 kts 76°
2026-05-06 04:33 22.79889 -83.74009 35055 ft 458 kts 76°
2026-05-06 04:34 22.80890 -83.67188 35055 ft 458 kts 76°
2026-05-06 04:34 22.81887 -83.60368 35063 ft 459 kts 76°
2026-05-06 04:35 22.82883 -83.53537 35060 ft 459 kts 76°
2026-05-06 04:35 22.83877 -83.46701 35062 ft 459 kts 76°
2026-05-06 04:36 22.84869 -83.39858 35060 ft 460 kts 76°
2026-05-06 04:36 22.85853 -83.33055 35061 ft 460 kts 76°
2026-05-06 04:37 22.86837 -83.26201 35059 ft 460 kts 76°
2026-05-06 04:37 22.87821 -83.19348 35064 ft 460 kts 76°
2026-05-06 04:38 22.88811 -83.12480 35065 ft 461 kts 76°
2026-05-06 04:38 22.89803 -83.05614 35065 ft 461 kts 76°
2026-05-06 04:39 22.90632 -82.99900 35067 ft 462 kts 76°
2026-05-06 04:39 22.91635 -82.93018 35063 ft 462 kts 76°
2026-05-06 04:40 22.92642 -82.86135 35059 ft 462 kts 76°
2026-05-06 04:40 22.93655 -82.79247 35058 ft 463 kts 76°
2026-05-06 04:41 22.94672 -82.72353 35072 ft 463 kts 76°
2026-05-06 04:41 22.95696 -82.65450 35084 ft 464 kts 76°
2026-05-06 04:42 22.96722 -82.58546 35100 ft 464 kts 76°
2026-05-06 04:42 22.97759 -82.51629 35111 ft 464 kts 75°
2026-05-06 04:43 22.98794 -82.44754 35111 ft 465 kts 75°
2026-05-06 04:43 22.99843 -82.37830 35102 ft 465 kts 75°
2026-05-06 04:44 23.00899 -82.30896 35108 ft 466 kts 75°
2026-05-06 04:44 23.01961 -82.23952 35093 ft 466 kts 75°
2026-05-06 04:45 23.03027 -82.17004 35083 ft 467 kts 75°
2026-05-06 04:45 23.04097 -82.10047 35078 ft 468 kts 75°
2026-05-06 04:46 23.05178 -82.03076 35061 ft 468 kts 75°
2026-05-06 04:46 23.06261 -81.96105 35065 ft 468 kts 75°
2026-05-06 04:47 23.07348 -81.89172 35066 ft 469 kts 75°
2026-05-06 04:47 23.08447 -81.82189 35063 ft 469 kts 75°
2026-05-06 04:48 23.09555 -81.75202 35071 ft 470 kts 75°
2026-05-06 04:48 23.10669 -81.68211 35072 ft 470 kts 75°
2026-05-06 04:49 23.11791 -81.61213 35072 ft 470 kts 75°
2026-05-06 04:49 23.12919 -81.54209 35077 ft 471 kts 75°
2026-05-06 04:50 23.14053 -81.47202 35078 ft 471 kts 75°
2026-05-06 04:50 23.15192 -81.40191 35075 ft 471 kts 75°
2026-05-06 04:51 23.16331 -81.33222 35072 ft 472 kts 75°
2026-05-06 04:51 23.17482 -81.26202 35071 ft 472 kts 75°
2026-05-06 04:52 23.18639 -81.19176 35065 ft 472 kts 75°
2026-05-06 04:52 23.19803 -81.12145 35056 ft 473 kts 75°
2026-05-06 04:53 23.20970 -81.05112 35058 ft 473 kts 75°
2026-05-06 04:53 23.22140 -80.98075 35059 ft 473 kts 75°
2026-05-06 04:54 23.23315 -80.91038 35063 ft 473 kts 74°
2026-05-06 04:54 23.24495 -80.83994 35061 ft 474 kts 74°
2026-05-06 04:55 23.25678 -80.76946 35060 ft 474 kts 74°
2026-05-06 04:55 23.26864 -80.69898 35062 ft 474 kts 74°
2026-05-06 04:56 23.28058 -80.62847 35061 ft 474 kts 74°
2026-05-06 04:56 23.29258 -80.55792 35060 ft 474 kts 74°
2026-05-06 04:57 23.30457 -80.48780 35061 ft 475 kts 74°
2026-05-06 04:57 23.31668 -80.41717 35062 ft 475 kts 74°
2026-05-06 04:58 23.32888 -80.34646 35063 ft 475 kts 74°
2026-05-06 04:58 23.34113 -80.27576 35061 ft 476 kts 74°
2026-05-06 04:59 23.35919 -80.20763 35046 ft 458 kts 52°
2026-05-06 04:59 23.37803 -80.18072 35062 ft 440 kts 35°
2026-05-06 04:59 23.40220 -80.16149 35053 ft 423 kts 18°
2026-05-06 04:59 23.42937 -80.15144 35052 ft 406 kts
2026-05-06 05:00 23.45696 -80.15108 35053 ft 391 kts 343°
2026-05-06 05:00 23.48226 -80.16014 35061 ft 379 kts 326°
2026-05-06 05:00 23.50276 -80.17744 35055 ft 372 kts 309°
2026-05-06 05:00 23.51645 -80.20110 35054 ft 371 kts 291°
2026-05-06 05:01 23.52189 -80.22862 35056 ft 376 kts 274°
2026-05-06 05:01 23.51811 -80.25683 35041 ft 379 kts 254°
2026-05-06 05:01 23.50472 -80.28144 35044 ft 375 kts 241°
2026-05-06 05:01 23.49140 -80.30490 35047 ft 357 kts 253°
2026-05-06 05:02 23.48132 -80.32934 34688 ft 354 kts 252°
2026-05-06 05:02 23.47107 -80.35406 33866 ft 364 kts 253°
2026-05-06 05:02 23.46066 -80.37950 33163 ft 367 kts 253°
2026-05-06 05:02 23.45062 -80.40424 33417 ft 350 kts 253°
2026-05-06 05:03 23.44090 -80.42840 33749 ft 347 kts 253°
2026-05-06 05:03 23.43126 -80.45239 34057 ft 345 kts 253°
2026-05-06 05:03 23.42168 -80.47621 34331 ft 342 kts 253°
2026-05-06 05:03 23.41216 -80.49991 34609 ft 340 kts 253°
2026-05-06 05:04 23.40271 -80.52340 34855 ft 339 kts 253°
2026-05-06 05:04 23.38322 -80.57186 34549 ft 362 kts 253°
2026-05-06 05:04 23.37291 -80.59744 34327 ft 376 kts 253°
2026-05-06 05:05 23.36223 -80.62394 34104 ft 389 kts 253°
2026-05-06 05:05 23.35115 -80.65141 33859 ft 402 kts 252°
2026-05-06 05:05 23.33974 -80.67968 33613 ft 414 kts 252°
2026-05-06 05:05 23.32807 -80.70857 33339 ft 420 kts 252°